SCP
0 0 0 0 0 0 0 0 0 0 0 0 0 0 0 0 0 0 0 0 0 0 0 0 0 0 0 0 0 0 0 0 0 0 0 0 0 0 0 0 0 0 0 0
0 0 0 0 0 0 0 0 0 0 0 0 0 0 0 0 0 0 0 0 0 0 0 0 0 0 0 0 0 0 0 0 0 0 0 0 0 0 0 0 0 0 0 0
0 0 0 0 0 0 0 0 0 0 0 0 0 0 0 0 0 0 0 0 0 0 0 0 0 0 0 0 0 0 0 0 0 0 0 0 0 0 0 0 0 0 0 0
0 0 0 0 0 0 0 0 0 0 0 0 0 0 0 0 0 0 0 0 0 0 0 0 0 0 0 0 0 0 0 0 0 0 0 0 0 0 0 0 0 0 0 0
0 0 0 0 0 0 0 0 0 0 0 0 0 0 0 0 0 0 0 0 0 0 0 0 0 0 0 0 0 0 0 0 0 0 0 0 0 0 0 0 0 0 0 0
0 0 0 0 0 0 0 0 0 0 0 0 0 0 0 0 0 0 0 0 0 0 0 0 0 0 0 0 0 0 0 0 0 0 0 0 0 0 0 0 0 0 0 0
0 0 0 0 0 0 0 0 0 0 0 0 0 0 0 0 0 0 0 0 0 0 0 0 0 0 0 0 0 0 0 0 0 0 0 0 0 0 0 0 0 0 0 0
0 0 0 0 0 0 0 0 0 0 0 0 0 0 0 0 0 0 0 0 0 0 0 0 0 0 0 0 0 0 0 0 0 0 0 0 0 0 0 0 0 0 0 0
0 0 0 0 0 0 0 0 0 0 0 0 0 0 0 0 0 0 0 0 0 0 0 0 0 0 0 0 0 0 0 0 0 0 0 0 0 0 0 0 0 0 0 0
0 0 0 0 0 0 0 0 0 0 0 0 0 0 0 0 0 0 0 0 0 0 0 0 0 0 0 0 0 0 0 0 0 0 0 0 0 0 0 0 0 0 0 0
0 0 0 0 0 0 0 0 0 0 0 0 0 0 0 0 0 0 0 0 0 0 0 0 0 0 0 0 0 0 0 0 0 0 0 0 0 0 0 0 0 0 0 0
0 0 0 0 0 0 0 0 0 0 0 0 0 0 0 0 0 0 0 0 0 0 0 0 0 0 0 0 0 0 0 0 0 0 0 0 0 0 0 0 0 0 0 0
0 0 0 0 0 0 0 0 0 0 0 0 0 0 0 0 0 0 0 0 0 0 0 0 0 0 0 0 0 0 0 0 0 0 0 0 0 0 0 0 0 0 0 0
0 0 0 0 0 0 0 0 0 0 0 0 0 0 0 0 0 0 0 0 0 0 0 0 0 0 0 0 0 0 0 0 0 0 0 0 0 0 0 0 0 0 0 0
0 0 0 0 0 0 0 0 0 0 0 0 0 0 0 0 0 0 0 0 0 0 0 0 0 0 0 0 0 0 0 0 0 0 0 0 0 0 0 0 0 0 0 0
0 0 0 0 0 0 0 0 0 0 0 0 0 0 0 0 0 0 0 0 0 0 0 0 0 0 0 0 0 0 0 0 0 0 0 0 0 0 0 0 0 0 0 0
0 0 0 0 0 0 0 0 0 0 0 0 0 0 0 0 0 0 0 0 0 0 0 0 0 0 0 0 0 0 0 0 0 0 0 0 0 0 0 0 0 0 0 0
0 0 0 0 0 0 0 0 0 0 0 0 0 0 0 0 0 0 0 0 0 0 0 0 0 0 0 0 0 0 0 0 0 0 0 0 0 0 0 0 0 0 0 0
0 0 0 0 0 0 0 0 0 0 0 0 0 0 0 0 0 0 0 0 0 0 0 0 0 0 0 0 0 0 0 0 0 0 0 0 0 0 0 0 0 0 0 0
0 0 0 0 0 0 0 0 0 0 0 0 0 0 0 0 0 0 0 0 0 0 0 0 0 0 0 0 0 0 0 0 0 0 0 0 0 0 0 0 0 0 0 0
0 0 0 0 0 0 0 0 0 0 0 0 0 0 0 0 0 0 0 0 0 0 0 0 0 0 0 0 0 0 0 0 0 0 0 0 0 0 0 0 0 0 0 0
0 0 0 0 0 0 0 0 0 0 0 0 0 0 0 0 0 0 0 0 0 0 0 0 0 0 0 0 0 0 0 0 0 0 0 0 0 0 0 0 0 0 0 0
0 0 0 0 0 0 0 0 0 0 0 0 0 0 0 0 0 0 0 0 0 0 0 0 0 0 0 0 0 0 0 0 0 0 0 0 0 0 0 0 0 0 0 0
0 0 0 0 0 0 0 0 0 0 0 0 0 0 0 0 0 0 0 0 0 0 0 0 0 0 0 0 0 0 0 0 0 0 0 0 0 0 0 0 0 0 0 0
0 0 0 0 0 0 0 0 0 0 0 0 0 0 0 0 0 0 0 0 0 0 0 0 0 0 0 0 0 0 0 0 0 0 0 0 0 0 0 0 0 0 0 0
0 0 0 0 0 0 0 0 0 0 0 0 0 0 0 0 0 0 0 0 0 0 0 0 0 0 0 0 0 0 0 0 0 0 0 0 0 0 0 0 0 0 0 0
Wind_Speed
1 3 5 5 6 4 3 6 7 4 2 4 7 9 6 4 4 4 3 2 1 1 1 1 1 1 1 2 2 3 2 2 2 2 1 1 0 1 1 1 2 2 2 2
3 4 3 2 3 3 4 6 7 3 2 3 5 8 7 5 5 4 3 3 1 0 1 1 1 1 1 2 1 1 2 2 2 1 1 0 0 0 1 1 1 1 1 1
6 1 1 3 4 4 6 8 7 5 2 4 4 8 6 4 4 3 3 2 1 1 0 1 1 1 1 1 1 1 1 1 2 2 1 1 1 1 0 1 0 1 1 1
3 1 2 3 4 5 6 4 5 5 5 4 4 7 5 4 4 4 3 3 2 1 1 0 0 0 0 0 0 1 1 1 1 1 1 2 1 1 1 1 1 1 1 1
2 0 2 4 3 4 1 2 2 4 5 5 5 7 5 4 6 5 4 4 3 2 1 1 1 1 1 0 1 1 1 1 1 1 1 2 2 1 0 1 1 1 1 1
1 1 1 1 1 1 3 3 2 2 4 7 6 9 7 5 6 4 4 3 3 2 2 1 1 1 1 1 1 1 1 1 1 1 1 1 2 1 1 1 2 1 1 1
2 2 1 1 3 3 3 3 3 4 5 6 2 7 7 1 2 3 4 3 2 2 2 2 2 2 1 1 1 1 1 1 1 1 1 1 2 2 2 2 2 2 2 2
4 4 3 2 3 4 5 5 5 6 6 3 4 8 3 0 0 1 2 2 2 3 3 3 2 2 2 2 2 2 2 2 2 2 2 2 2 2 2 3 3 3 2 2
5 3 2 0 1 2 5 5 3 2 2 6 6 5 5 2 3 3 4 4 4 3 3 3 3 3 3 3 3 3 3 3 3 3 3 2 2 3 3 3 3 3 3 2
2 3 1 0 1 1 2 3 4 5 5 8 7 7 5 5 6 5 5 5 4 3 3 3 3 3 3 3 3 3 3 3 3 3 3 2 3 3 3 3 3 3 3 3
1 3 2 3 5 5 4 4 4 3 4 6 7 5 1 4 5 7 6 5 4 4 4 3 3 3 3 3 3 3 3 3 3 3 3 3 3 4 4 4 4 4 4 4
1 2 3 3 1 3 4 5 6 6 6 5 6 5 2 1 2 4 5 4 4 4 3 3 3 3 3 3 3 3 3 3 3 3 3 4 4 4 4 4 4 4 4 4
3 3 2 3 3 2 3 3 4 3 3 6 8 7 2 0 3 3 4 4 3 3 3 3 3 3 3 3 3 3 3 3 3 3 4 4 4 4 4 4 4 4 4 4
2 3 6 8 3 3 4 5 6 6 6 9 12 12 6 5 6 5 5 4 4 3 3 3 3 3 3 3 3 3 4 3 3 3 4 4 4 4 4 4 4 5 5 5
2 4 5 7 6 4 5 7 8 11 11 11 12 13 12 8 8 6 5 4 3 3 3 3 3 3 3 3 3 3 3 3 3 3 4 4 4 4 4 4 4 4 5 5
2 3 3 6 6 5 8 10 11 12 12 14 14 15 9 6 4 5 4 4 4 4 4 3 3 3 3 3 3 3 3 3 3 3 4 3 3 3 4 4 4 4 4 5
3 4 4 5 3 4 9 9 10 9 8 9 12 11 5 5 5 5 5 4 4 5 4 3 3 3 3 3 3 3 3 2 3 3 3 3 3 3 4 4 4 4 5 5
4 4 3 3 2 9 3 1 4 6 7 8 7 6 5 6 5 5 4 4 4 4 4 4 3 3 3 2 2 2 2 2 2 3 3 3 3 3 3 4 4 5 5 5
4 4 3 3 5 9 4 2 3 5 7 5 7 7 5 4 4 3 2 3 4 4 3 3 2 2 3 2 2 2 2 2 3 3 3 3 3 4 4 5 5 5 5 5
1 2 3 4 5 7 2 1 0 2 5 1 3 5 3 2 4 2 2 3 3 3 2 2 2 2 2 2 2 2 2 2 3 4 4 3 4 4 5 5 5 5 5 6
3 3 5 7 7 7 1 1 2 4 3 2 2 3 2 4 4 3 3 3 3 3 2 2 2 2 2 2 2 2 3 3 4 4 4 4 4 5 5 5 5 5 5 5
6 5 6 5 7 7 3 3 4 3 3 2 2 2 3 4 3 3 3 3 3 3 3 2 2 3 2 2 2 3 4 4 3 4 4 4 4 4 4 5 5 5 5 5
5 5 4 6 5 1 3 3 2 2 3 3 3 3 3 4 4 4 4 4 3 3 3 3 2 3 3 2 2 4 4 4 3 4 4 4 5 4 5 5 5 5 4 5
4 2 4 6 6 4 4 3 3 3 4 4 3 3 2 3 4 4 4 4 4 3 3 3 3 3 4 3 3 4 4 4 4 5 5 5 5 5 4 4 4 4 4 5
3 3 3 6 5 4 4 4 4 4 3 3 3 2 2 3 3 3 3 4 4 3 3 3 3 3 4 4 4 4 3 3 4 4 4 5 4 5 4 5 5 5 6 6
3 4 5 5 3 4 4 3 3 3 4 4 3 3 3 3 3 3 3 4 4 4 4 3 4 4 4 4 5 4 3 3 3 4 4 4 4 4 4 4 5 7 9 11
Wind_Direction
100 188 207 211 222 260 224 220 237 240 216 229 236 250 255 235 228 232 224 214 217 296 5 28 62 97 136 143 163 168 165 154 144 146 146 139 142 110 81 59 47 43 42 35
165 219 240 206 187 195 209 229 244 232 170 234 256 264 259 236 222 223 211 199 199 231 19 32 65 95 113 124 131 155 180 166 163 169 168 236 143 155 67 57 51 31 32 35
206 100 167 177 179 203 229 236 241 240 210 209 263 261 227 203 195 196 204 205 206 218 263 20 31 81 98 111 139 146 144 171 179 166 134 112 106 109 90 21 1 333 348 4
219 261 190 195 219 232 249 238 230 225 233 237 236 272 229 207 207 207 203 200 208 216 223 262 315 253 201 173 152 164 147 146 158 166 165 165 185 198 240 270 282 302 313 302
198 163 215 225 254 234 236 77 199 219 231 255 223 249 250 192 227 224 208 204 207 216 221 234 253 237 221 193 165 150 139 133 139 161 187 205 222 249 275 265 255 272 284 301
233 77 308 278 23 153 134 124 119 180 214 244 227 230 253 212 221 203 192 200 207 215 230 246 248 219 200 166 152 148 150 134 137 167 191 227 242 251 245 249 249 255 262 269
226 192 127 134 137 138 186 202 227 221 218 238 174 234 253 235 219 213 204 208 218 220 233 249 249 227 218 205 205 211 199 197 196 199 211 238 250 246 238 244 247 258 259 268
232 231 176 199 221 203 202 226 239 254 257 252 203 240 252 35 285 235 211 218 228 232 242 250 250 247 244 237 240 240 234 234 230 228 233 239 247 245 250 254 259 255 255 262
223 223 92 89 343 223 190 214 270 264 289 273 248 259 266 221 226 221 216 223 229 237 246 253 250 248 248 246 246 244 243 244 241 241 246 245 246 251 255 258 259 257 261 266
230 234 186 124 178 27 294 175 179 210 242 255 256 252 248 212 216 216 222 231 242 251 263 266 261 257 251 247 245 239 244 253 255 251 249 251 255 255 255 254 255 259 263 263
230 219 204 192 214 210 175 188 212 218 253 255 264 252 241 229 218 221 229 237 248 252 254 266 268 254 251 248 245 244 246 255 259 258 256 256 256 254 252 251 253 255 257 257
209 227 240 229 42 327 247 225 202 216 225 236 268 270 64 235 227 225 237 244 251 250 259 269 263 255 249 248 251 254 256 257 259 261 255 252 253 250 251 255 257 257 255 255
162 186 229 226 195 193 232 223 224 230 231 228 243 258 84 339 294 272 260 262 261 260 270 269 254 253 250 249 251 256 259 261 263 259 254 252 252 250 252 255 257 257 256 257
165 211 234 252 285 182 219 217 206 204 227 242 244 263 272 281 285 287 278 273 272 270 275 262 258 256 258 258 257 260 264 261 258 253 252 252 252 252 254 257 256 255 254 254
203 234 245 269 283 266 250 237 216 221 237 250 264 266 276 275 280 283 276 271 269 272 273 259 257 259 261 263 264 262 263 259 249 244 247 252 256 254 253 254 256 256 256 256
220 235 246 265 263 260 264 253 239 242 248 253 266 272 283 290 297 289 266 263 265 273 274 271 269 270 270 267 264 262 262 256 244 239 247 254 252 251 252 254 256 257 258 259
195 197 226 257 278 275 260 239 224 230 235 235 248 265 293 290 285 284 279 266 268 278 273 271 272 271 273 270 266 259 259 252 241 242 247 247 246 248 252 254 254 256 258 258
191 196 227 262 251 244 263 72 218 231 246 238 255 278 287 285 299 294 279 272 282 292 279 278 279 282 286 284 279 275 261 250 248 248 248 248 248 251 255 255 255 259 259 258
218 196 206 223 249 268 263 188 189 225 261 240 252 271 298 325 305 271 268 283 289 299 291 285 288 292 297 292 289 273 259 253 252 254 256 256 255 258 259 259 261 263 261 261
128 217 217 216 240 253 287 79 302 210 256 229 257 270 287 296 273 303 357 322 315 322 315 299 302 303 296 297 289 259 262 261 264 269 272 269 262 259 260 262 264 264 262 263
173 195 217 228 243 264 344 70 172 214 285 340 269 265 241 237 277 330 332 328 332 329 323 305 296 294 292 295 282 266 270 271 279 282 279 274 268 264 264 265 263 264 264 264
198 195 204 210 230 252 108 143 205 276 345 314 283 268 254 268 293 304 312 322 329 327 322 312 300 298 301 291 275 274 278 287 290 284 280 278 276 273 268 266 266 264 262 262
220 222 217 213 231 359 161 210 267 334 300 292 283 279 266 270 281 296 307 315 319 315 311 313 302 298 301 293 272 270 282 293 289 282 280 281 281 275 272 267 266 263 258 258
227 244 238 250 254 256 244 252 288 302 297 301 292 278 254 262 281 293 301 309 313 308 305 306 303 302 304 301 277 269 281 288 285 280 280 279 276 272 268 264 260 259 258 257
244 194 238 256 276 298 254 253 275 286 294 299 299 284 267 260 273 283 293 299 302 304 304 297 287 290 298 307 301 291 284 279 277 279 280 279 275 277 279 273 266 264 258 258
202 201 220 252 260 254 278 302 288 277 279 282 284 289 284 269 271 283 288 293 297 300 300 294 289 289 296 303 301 299 292 277 274 280 280 279 278 278 275 278 281 272 270 276